User: anonymous   Login
Location: Unspecified
(0.0000°N, 0.0000°E)
Time: 19:23:15
(UTC+00:00)
Language:

NNS O-23 - Orbit

View from above orbital plane
View from above orbital plane
View from above satellite
View from above satellite

Ground track
Ground track

The orbit data is extracted from the following two-line orbital elements,

1 19070U 88033A   18170.90144134 +.00000054 +00000-0 +94840-4 0  9990
2 19070 090.3705 286.4771 0189561 217.7805 259.3242 13.27431261459946
Epoch (UTC): 19 June 2018 21:38:04
Eccentricity: 0.0189561
inclination: 90.3705°
perigee height: 1013 km
apogee height: 1299 km
right ascension of ascending node: 286.4771°
argument of perigee: 217.7805°
revolutions per day: 13.27431261
mean anomaly at epoch: 259.3242°
orbit number at epoch: 45994

The dashed part of the orbit path shows where the satellite is in the earth's shadow,  

DLR